Location: Conflandey
(47.7287°N, 6.0456°E)
Time: 03:01:16
(UTC+00:00)

Okean-O - Pass Details

Date: 24 October 2021
Orbit: 638 x 640 km, 98.2° (Epoch: 28 November)

Event Time Altitude Azimuth Distance (km) Brightness Sun altitude
Exits shadow 19:40:23 27° 254° (WSW) 1,249 4.5 -32.2°
Maximum altitude 19:40:51 27° 265° (W) 1,232 4.5 -32.3°
Drops below altitude 10° 19:44:39 10° 324° (NW) 2,042 5.8 -32.9°
Sets 19:47:09 0° 336° (NNW) 2,957 6.6 -33.3°
